| time (UTC) | temp F | wind direction | speed knots | gust knots | rain 1hr in | rain 24hr in | rain mn in | humidity % | barometer mb |
| 20260906120027 | 70 | 30 | 0.0 | 2.6 | 0.00 | 0.00 | 0.00 | 96 | 1019.1 |
| 20260906114528 | 70 | 30 | 0.0 | 1.7 | 0.00 | 0.00 | 0.00 | 96 | 1018.8 |
| 20260906113024 | 70 | 30 | 0.0 | 2.6 | 0.00 | 0.00 | 0.00 | 96 | 1018.7 |
| 20260906111520 | 70 | 30 | 0.0 | 2.6 | 0.00 | 0.00 | 0.00 | 96 | 1018.4 |
| 20260906110019 | 70 | 30 | 0.9 | 2.6 | 0.00 | 0.00 | 0.00 | 96 | 1018.5 |
| 20260906104517 | 70 | 30 | 0.0 | 2.6 | 0.00 | 0.00 | 0.00 | 95 | 1018.1 |
| 20260906103016 | 70 | 30 | 0.0 | 1.7 | 0.00 | 0.00 | 0.00 | 95 | 1018.0 |
| 20260906101515 | 70 | 30 | 0.0 | 0.9 | 0.00 | 0.00 | 0.00 | 95 | 1018.0 |
| 20260906100013 | 71 | 30 | 0.0 | 1.7 | 0.00 | 0.00 | 0.00 | 95 | 1017.9 |
| 20260906094511 | 71 | 30 | 0.0 | 0.9 | 0.00 | 0.00 | 0.00 | 94 | 1017.8 |
| 20260906093032 | 71 | 30 | 0.0 | 1.7 | 0.00 | 0.00 | 0.00 | 94 | 1017.8 |
| 20260906091509 | 71 | 30 | 0.0 | 2.6 | 0.00 | 0.00 | 0.00 | 94 | 1017.7 |
| 20260906090108 | 72 | 30 | 0.0 | 2.6 | 0.00 | 0.00 | 0.00 | 94 | 1017.6 |
| 20260906084545 | 72 | 29 | 0.9 | 3.5 | 0.00 | 0.00 | 0.00 | 93 | 1017.6 |
| 20260906083042 | 72 | 51 | 0.0 | 2.6 | 0.00 | 0.00 | 0.00 | 93 | 1017.6 |
| 20260906081537 | 73 | 51 | 0.0 | 3.5 | 0.00 | 0.00 | 0.00 | 93 | 1017.5 |
| 20260906080037 | 73 | 52 | 0.9 | 3.5 | 0.00 | 0.00 | 0.00 | 93 | 1017.8 |
| 20260906074546 | 73 | 49 | 0.0 | 3.5 | 0.00 | 0.00 | 0.00 | 93 | 1017.7 |
| 20260906073033 | 73 | 49 | 0.9 | 3.5 | 0.00 | 0.00 | 0.00 | 92 | 1017.7 |
| 20260906071532 | 73 | 49 | 0.0 | 4.3 | 0.00 | 0.00 | 0.00 | 92 | 1017.8 |
| 20260906070032 | 73 | 30 | 0.0 | 4.3 | 0.00 | 0.00 | 0.00 | 92 | 1017.9 |
| 20260906064534 | 73 | 49 | 0.0 | 3.5 | 0.00 | 0.00 | 0.00 | 92 | 1017.7 |
| 20260906063030 | 74 | 50 | 0.0 | 4.3 | 0.00 | 0.00 | 0.00 | 92 | 1017.7 |
| 20260906061533 | 74 | 49 | 1.7 | 5.2 | 0.00 | 0.00 | 0.00 | 92 | 1017.8 |
| 20260906060028 | 74 | 49 | 0.9 | 5.2 | 0.00 | 0.00 | 0.00 | 91 | 1017.7 |
| 20260906054527 | 74 | 51 | 0.9 | 5.2 | 0.00 | 0.00 | 0.00 | 91 | 1017.6 |
| 20260906053025 | 74 | 59 | 0.9 | 6.1 | 0.00 | 0.00 | 0.00 | 91 | 1017.6 |
| 20260906051526 | 74 | 59 | 0.0 | 5.2 | 0.00 | 0.00 | 0.00 | 91 | 1017.6 |
| 20260906050023 | 74 | 13 | 0.9 | 7.8 | 0.00 | 0.00 | 0.00 | 91 | 1017.5 |
| 20260906044519 | 74 | 84 | 0.0 | 3.5 | 0.00 | 0.00 | 0.00 | 91 | 1017.3 |
| 20260906043018 | 74 | 45 | 0.9 | 9.6 | 0.00 | 0.00 | 0.00 | 91 | 1017.0 |
| 20260906041522 | 74 | 55 | 0.9 | 5.2 | 0.00 | 0.00 | 0.00 | 90 | 1016.7 |
| 20260906040015 | 74 | 109 | 0.0 | 9.6 | 0.00 | 0.00 | 0.00 | 90 | 1016.7 |
| 20260906034515 | 74 | 72 | 2.6 | 9.6 | 0.00 | 0.00 | 0.00 | 90 | 1016.6 |
| 20260906033012 | 74 | 66 | 0.0 | 6.1 | 0.00 | 0.00 | 0.00 | 89 | 1016.5 |
| 20260906031512 | 74 | 76 | 0.0 | 7.8 | 0.00 | 0.00 | 0.00 | 89 | 1016.6 |
| 20260906030011 | 74 | 49 | 1.7 | 9.6 | 0.00 | 0.00 | 0.00 | 89 | 1016.6 |
| 20260906024509 | 74 | 33 | 1.7 | 8.7 | 0.00 | 0.00 | 0.00 | 89 | 1016.6 |
| 20260906023008 | 74 | 51 | 1.7 | 7.8 | 0.00 | 0.00 | 0.00 | 89 | 1016.5 |
| 20260906021508 | 74 | 55 | 1.7 | 9.6 | 0.00 | 0.00 | 0.00 | 89 | 1016.5 |
| 20260906020006 | 74 | 50 | 3.5 | 8.7 | 0.00 | 0.00 | 0.00 | 90 | 1016.4 |
| 20260906014517 | 74 | 75 | 1.7 | 10.4 | 0.00 | 0.00 | 0.00 | 90 | 1016.7 |
| 20260906013004 | 74 | 100 | 4.3 | 10.4 | 0.00 | 0.00 | 0.00 | 90 | 1016.6 |
| 20260906011501 | 74 | 41 | 4.3 | 13.9 | 0.00 | 0.00 | 0.00 | 89 | 1016.6 |
| 20260906010129 | 74 | 34 | 2.6 | 13.0 | 0.00 | 0.00 | 0.00 | 89 | 1016.5 |
| 20260906004557 | 74 | 82 | 3.5 | 9.6 | 0.00 | 0.00 | 0.00 | 89 | 1016.2 |
| 20260906003053 | 74 | 41 | 5.2 | 14.8 | 0.00 | 0.00 | 0.00 | 89 | 1015.9 |
| 20260906001603 | 75 | 28 | 5.2 | 12.2 | 0.00 | 0.00 | 0.00 | 88 | 1015.8 |
| 20260906000048 | 76 | 43 | 6.1 | 13.9 | 0.00 | 0.00 | 0.00 | 88 | 1015.8 |
| 20260905234543 | 76 | 42 | 3.5 | 12.2 | 0.00 | 0.00 | 0.00 | 87 | 1015.7 |
| 20260905233040 | 77 | 78 | 7.0 | 13.9 | 0.00 | 0.00 | 0.00 | 85 | 1015.6 |
| 20260905231543 | 78 | 69 | 2.6 | 11.3 | 0.00 | 0.00 | 0.00 | 85 | 1015.3 |
| 20260905230039 | 79 | 77 | 6.1 | 13.9 | 0.00 | 0.00 | 0.00 | 83 | 1015.2 |
| 20260905224543 | 80 | 87 | 5.2 | 12.2 | 0.00 | 0.00 | 0.00 | 82 | 1015.1 |
| 20260905223040 | 81 | 355 | 2.6 | 10.4 | 0.00 | 0.00 | 0.00 | 81 | 1014.8 |
| 20260905221541 | 81 | 76 | 6.1 | 11.3 | 0.00 | 0.00 | 0.00 | 80 | 1014.8 |
| 20260905220035 | 81 | 63 | 4.3 | 10.4 | 0.00 | 0.00 | 0.00 | 79 | 1014.9 |
| 20260905214533 | 81 | 42 | 2.6 | 11.3 | 0.00 | 0.00 | 0.00 | 80 | 1014.8 |
| 20260905213035 | 81 | 76 | 2.6 | 9.6 | 0.00 | 0.00 | 0.00 | 81 | 1014.8 |
| 20260905211541 | 81 | 45 | 1.7 | 5.2 | 0.00 | 0.00 | 0.00 | 83 | 1014.8 |
| 20260905210035 | 81 | 84 | 1.7 | 7.8 | 0.00 | 0.00 | 0.00 | 84 | 1015.0 |
| 20260905204532 | 81 | 36 | 2.6 | 8.7 | 0.00 | 0.00 | 0.00 | 83 | 1015.1 |
| 20260905203042 | 81 | 32 | 1.7 | 9.6 | 0.00 | 0.00 | 0.00 | 83 | 1015.1 |
| 20260905201549 | 81 | 79 | 0.9 | 9.6 | 0.00 | 0.00 | 0.00 | 82 | 1015.0 |
| 20260905200030 | 82 | 67 | 2.6 | 7.8 | 0.00 | 0.00 | 0.00 | 82 | 1015.1 |
| 20260905194529 | 82 | 317 | 2.6 | 10.4 | 0.00 | 0.00 | 0.00 | 82 | 1015.0 |
| 20260905193033 | 82 | 105 | 3.5 | 10.4 | 0.00 | 0.00 | 0.00 | 81 | 1015.1 |
| 20260905191529 | 83 | 44 | 2.6 | 11.3 | 0.00 | 0.00 | 0.00 | 81 | 1015.2 |
| 20260905190027 | 83 | 38 | 1.7 | 8.7 | 0.00 | 0.00 | 0.00 | 81 | 1015.1 |
| 20260905184530 | 83 | 49 | 3.5 | 12.2 | 0.00 | 0.00 | 0.00 | 81 | 1015.1 |
| 20260905183029 | 83 | 31 | 3.5 | 12.2 | 0.00 | 0.00 | 0.00 | 80 | 1015.3 |
| 20260905181523 | 84 | 62 | 5.2 | 10.4 | 0.00 | 0.00 | 0.00 | 79 | 1015.1 |
| 20260905180023 | 85 | 43 | 1.7 | 11.3 | 0.00 | 0.00 | 0.00 | 80 | 1015.0 |
| 20260905174522 | 84 | 29 | 3.5 | 9.6 | 0.00 | 0.00 | 0.00 | 79 | 1015.0 |
| 20260905173021 | 84 | 53 | 5.2 | 10.4 | 0.00 | 0.00 | 0.00 | 79 | 1015.0 |
| 20260905171521 | 85 | 29 | 3.5 | 8.7 | 0.00 | 0.00 | 0.00 | 79 | 1015.0 |
| 20260905170020 | 85 | 51 | 3.5 | 9.6 | 0.00 | 0.00 | 0.00 | 79 | 1015.1 |
| 20260905164519 | 85 | 43 | 2.6 | 9.6 | 0.00 | 0.00 | 0.00 | 79 | 1015.2 |
| 20260905163019 | 85 | 30 | 2.6 | 6.1 | 0.00 | 0.00 | 0.00 | 80 | 1015.1 |
| 20260905161519 | 85 | 28 | 2.6 | 8.7 | 0.00 | 0.00 | 0.00 | 80 | 1015.2 |
| 20260905160016 | 85 | 51 | 3.5 | 7.8 | 0.00 | 0.00 | 0.00 | 80 | 1015.1 |
| 20260905154512 | 84 | 53 | 3.5 | 7.8 | 0.00 | 0.00 | 0.00 | 83 | 1015.1 |
| 20260905153043 | 83 | 138 | 1.7 | 9.6 | 0.00 | 0.00 | 0.00 | 84 | 1015.0 |
| 20260905151511 | 82 | 84 | 0.9 | 10.4 | 0.00 | 0.00 | 0.00 | 86 | 1014.8 |
| 20260905150016 | 81 | 77 | 2.6 | 9.6 | 0.00 | 0.00 | 0.00 | 86 | 1014.6 |
| 20260905144512 | 80 | 76 | 4.3 | 8.7 | 0.00 | 0.00 | 0.00 | 90 | 1014.7 |
| 20260905143004 | 79 | 35 | 1.7 | 10.4 | 0.00 | 0.00 | 0.00 | 92 | 1014.6 |
| 20260905141504 | 78 | 70 | 1.7 | 7.8 | 0.00 | 0.00 | 0.00 | 94 | 1014.5 |
| 20260905140003 | 77 | 41 | 2.6 | 7.8 | 0.00 | 0.00 | 0.00 | 94 | 1014.4 |
| 20260905134502 | 77 | 8 | 3.5 | 8.7 | 0.00 | 0.00 | 0.00 | 94 | 1014.4 |
| 20260905133000 | 77 | 35 | 1.7 | 9.6 | 0.00 | 0.00 | 0.00 | 94 | 1014.6 |
| 20260905131615 | 77 | 46 | 2.6 | 8.7 | 0.00 | 0.00 | 0.00 | 95 | 1014.6 |
| 20260905130057 | 77 | 52 | 0.9 | 4.3 | 0.00 | 0.00 | 0.00 | 95 | 1014.1 |
| 20260905124554 | 77 | 75 | 2.6 | 10.4 | 0.00 | 0.00 | 0.00 | 95 | 1014.0 |
| 20260905123052 | 77 | 72 | 1.7 | 5.2 | 0.00 | 0.00 | 0.00 | 95 | 1013.5 |
| 20260905121551 | 77 | 49 | 1.7 | 4.3 | 0.00 | 0.00 | 0.00 | 95 | 1013.6 |